Main page
METAR-TAF:

METAR-TAF

Airports :

Johnson County Airport

Buffalo, Wyoming, United States

latitude: 44-22-53N, longitude: 106-43-08W, elevation: 4966 ft

Current weather observation

The report was made 17 minutes ago, at 10:53 UTC
Wind 6 mph from the Northwest
Temperature 43°F
Humidity 70%
Pressure 29.70 in. Hg
Visibility: 10 miles
Overcast at a height of 12000 ft

METAR: KBYG 251053Z AUTO 32005KT 10SM OVC120 06/01 A2970 RMK AO2 SLP033 T00610006

Time: 05:10 (11:10 UTC)


TAF: missing

Weather observations and forecasts of more than 4000 airports (METAR and TAF reports).

The available stations are represented by yellow and red dots on the map.

Hover mouse over dot to see the name of the station.

Then click to see weather observations and forecasts.

To change the map : click on the green buttons with a black cross to zoom in, on the green button with a dash to zoom out, or on the green arrows for adjacent maps.


METAR-TAF: